1506535200.51,54064,18.31,74778.0,-1.03,-27.67,-29.01,0,*5F
1506535201.73,54065,18.31,74776.8,-1.03,-27.71,-29.17,0,*5E
1506535202.96,54066,18.31,74774.5,-0.99,-27.67,-29.01,0,*6F
1506535204.21,54067,18.31,74778.3,-1.01,-27.77,-29.13,0,*5C
1506535205.49,54068,18.31,74778.0,-1.01,-27.83,-29.13,0,*58
1506535206.76,54069,18.31,74776.3,-1.01,-27.99,-29.29,0,*5B
1506535207.98,54070,18.31,74778.0,-0.99,-27.77,-29.13,0,*6A
1506535209.18,54071,18.31,74776.3,-1.03,-27.71,-29.07,0,*5A
1506535210.44,54072,18.31,74776.3,-1.03,-27.99,-29.35,0,*5E
1506535211.66,54073,18.31,74778.8,-1.03,-27.83,-29.23,0,*53
1506535212.91,54074,18.31,74778.8,-1.01,-27.77,-29.13,0,*5E
1506535214.19,54075,18.31,74778.8,-1.01,-27.83,-29.17,0,*50
1506535215.46,54076,18.31,74778.5,-1.01,-27.83,-29.29,0,*5E
1506535216.69,54077,18.31,74776.5,-1.03,-27.89,-29.17,0,*5A
1506535217.95,54078,18.31,74778.8,-1.03,-27.83,-29.35,0,*5F
1506535219.15,54079,18.31,74776.5,-1.03,-27.71,-29.07,0,*52
1506535220.4,54080,18.38,74780.3,-1.01,-27.55,-29.01,0,*56
1506535221.69,54081,18.31,74778.3,-1.01,-27.61,-29.13,0,*53
1506535222.95,54082,18.31,74776.3,-1.01,-27.67,-29.17,0,*52
1506535224.2,54083,18.31,74776.3,-1.01,-27.77,-29.17,0,*52
1506535225.44,54084,18.31,74778.8,-1.03,-27.89,-29.35,0,*56
1506535226.69,54085,18.31,74776.5,-1.03,-27.45,-28.91,0,*58
1506535227.9,54086,18.31,74776.3,-1.03,-27.67,-29.07,0,*55
1506535229.18,54087,18.31,74776.0,-1.01,-27.61,-29.13,0,*55
1506535230.44,54088,18.31,74778.3,-1.03,-27.83,-29.35,0,*50
1506535231.7,54089,18.38,74782.0,-1.01,-27.67,-29.01,0,*5E
1506535232.93,54090,18.31,74776.3,-1.03,-27.71,-29.17,0,*54
1506535234.18,54091,18.38,74780.0,-1.03,-27.83,-29.35,0,*58
1506535235.42,54092,18.31,74778.0,-1.03,-27.89,-29.51,0,*53
1506535236.68,54093,18.38,74778.5,-1.01,-27.67,-29.17,0,*52
1506535237.91,54094,18.31,74776.5,-1.03,-27.71,-29.39,0,*5C
1506535239.16,54095,18.31,74776.5,-1.01,-27.55,-29.01,0,*52
1506535240.37,54096,18.31,74774.8,-1.03,-27.67,-29.07,0,*54
1506535241.62,54097,18.31,74776.0,-1.01,-27.39,-28.97,0,*54
1506535242.88,54098,18.31,74776.8,-1.01,-27.45,-28.97,0,*50
1506535244.11,54099,18.31,74774.5,-1.03,-27.61,-29.07,0,*5D
1506535245.4,54100,18.31,74778.0,-1.01,-27.61,-29.13,0,*5B
1506535246.65,54101,18.31,74776.5,-1.03,-27.83,-29.35,0,*50
1506535247.91,54102,18.31,74776.8,-1.03,-27.83,-29.35,0,*53
1506535249.11,54103,18.31,74776.8,-1.03,-27.71,-29.23,0,*58
1506535250.37,54104,18.31,74778.0,-1.03,-27.83,-29.35,0,*55
1506535251.6,54105,18.31,74778.8,-1.03,-27.71,-29.35,0,*59
1506535252.84,54106,18.31,74776.5,-1.03,-27.71,-29.35,0,*5A
1506535254.07,54107,18.31,74776.8,-1.03,-27.71,-29.35,0,*5B
1506535255.3,54108,18.31,74776.5,-1.03,-27.67,-29.17,0,*53
1506535256.56,54109,18.31,74776.0,-1.03,-27.83,-29.35,0,*58
1506535257.82,54110,18.31,74776.5,-1.03,-27.83,-29.35,0,*50
1506535259.05,54111,18.31,74776.8,-1.03,-27.61,-29.07,0,*5C
1506535260.31,54112,18.31,74776.3,-1.03,-27.83,-29.35,0,*52
1506535261.56,54113,18.31,74778.8,-1.03,-27.83,-29.39,0,*5F
1506535262.78,54114,18.31,74776.5,-1.05,-27.67,-29.23,0,*5F
1506535264.04,54115,18.31,74776.5,-1.05,-27.71,-29.35,0,*5E
1506535265.28,54116,18.31,74776.3,-1.03,-27.67,-29.35,0,*5C
1506535266.54,54117,18.31,74774.0,-1.05,-27.71,-29.35,0,*5C
1506535267.77,54118,18.31,74776.8,-1.05,-27.71,-29.23,0,*54
1506535269.02,54119,18.38,74780.8,-1.05,-27.67,-29.17,0,*55
1506535270.26,54120,18.31,74778.5,-1.07,-27.67,-29.39,0,*51
1506535271.52,54121,18.31,74776.8,-1.05,-27.67,-29.35,0,*5E
1506535272.77,54122,18.38,74780.3,-1.05,-27.45,-29.07,0,*5C
1506535274.02,54123,18.31,74778.0,-1.05,-27.45,-29.07,0,*5D
1506535275.28,54124,18.31,74778.0,-1.05,-27.61,-29.23,0,*5A
1506535276.51,54125,18.31,74778.8,-1.05,-27.67,-29.23,0,*5D
1506535277.77,54126,18.31,74780.0,-1.05,-27.67,-29.35,0,*59
1506535278.97,54127,18.31,74778.0,-1.07,-27.55,-29.23,0,*5C
1506535280.24,54128,18.31,74776.3,-1.07,-27.61,-29.29,0,*5E
1506535281.46,54129,18.38,74782.5,-1.05,-27.67,-29.23,0,*51
1506535282.7,54130,18.31,74778.5,-1.07,-27.67,-29.29,0,*51
1506535283.95,54131,18.31,74776.3,-1.05,-27.71,-29.35,0,*58
1506535285.19,54132,18.31,74778.3,-1.07,-27.71,-29.39,0,*55
1506535286.42,54133,18.31,74778.8,-1.07,-27.71,-29.29,0,*55
1506535287.67,54134,18.31,74772.5,-1.05,-27.61,-29.23,0,*5B
1506535288.9,54135,18.31,74774.3,-1.07,-27.71,-29.29,0,*53
1506535290.15,54136,18.31,74778.0,-1.05,-27.45,-29.07,0,*59
1506535291.36,54137,18.31,74778.5,-1.07,-27.55,-29.23,0,*5D
1506535292.64,54138,18.38,74780.5,-1.05,-27.61,-29.39,0,*5C
1506535293.87,54139,18.31,74776.5,-1.07,-27.71,-29.29,0,*5F
1506535295.13,54140,18.31,74778.0,-1.05,-27.61,-29.45,0,*58
1506535296.37,54141,18.31,74778.0,-1.07,-27.71,-29.39,0,*51
1506535297.6,54142,18.31,74778.5,-1.07,-27.55,-29.29,0,*55
1506535298.8,54143,18.31,74776.5,-1.07,-27.55,-29.23,0,*5E
1506535300.03,54144,18.31,74778.8,-1.07,-27.55,-29.29,0,*53
1506535301.25,54145,18.31,74776.3,-1.07,-27.55,-29.29,0,*52
1506535302.48,54146,18.31,74778.5,-1.07,-27.39,-29.07,0,*57
1506535303.71,54147,18.31,74778.5,-1.07,-27.39,-29.07,0,*56
1506535304.94,54148,18.31,74774.8,-1.07,-27.55,-29.29,0,*5F
1506535306.17,54149,18.31,74778.3,-1.07,-27.55,-29.39,0,*5F
1506535307.4,54150,18.31,74776.8,-1.07,-27.51,-29.29,0,*52
1506535308.6,54151,18.31,74776.0,-1.07,-27.51,-29.23,0,*59
1506535309.81,54152,18.31,74778.5,-1.07,-27.51,-29.23,0,*5A
1506535311.03,54153,18.31,74778.5,-1.07,-27.35,-29.07,0,*5F
1506535312.26,54154,18.31,74772.5,-1.07,-27.39,-29.23,0,*52
1506535313.49,54155,18.31,74778.0,-1.07,-27.51,-29.29,0,*57
1506535314.72,54156,18.31,74776.8,-1.11,-27.67,-29.39,0,*57
1506535315.96,54157,18.31,74774.0,-1.11,-27.67,-29.39,0,*56
1506535317.19,54158,18.31,74776.3,-1.07,-27.55,-29.39,0,*5F
1506535318.41,54159,18.31,74776.0,-1.11,-27.55,-29.29,0,*58
1506535319.61,54160,18.31,74778.0,-1.11,-27.55,-29.23,0,*58
1506535320.82,54161,18.31,74776.0,-1.07,-27.51,-29.23,0,*5A
1506535322.05,54162,18.31,74776.3,-1.07,-27.55,-29.39,0,*56
1506535323.26,54163,18.31,74774.8,-1.07,-27.51,-29.23,0,*58
1506535324.48,54164,18.31,74774.8,-1.11,-27.39,-29.23,0,*56
1506535325.71,54165,18.31,74776.3,-1.11,-27.51,-29.13,0,*5A
1506535326.96,54166,18.31,74776.8,-1.13,-27.55,-29.29,0,*56
1506535328.19,54167,18.31,74774.8,-1.11,-27.39,-29.23,0,*55
1506535329.44,54168,18.31,74778.3,-1.07,-27.39,-29.29,0,*57
1506535330.65,54169,18.31,74776.5,-1.11,-27.55,-29.57,0,*52
1506535331.86,54170,18.31,74776.3,-1.11,-27.55,-29.45,0,*59
1506535333.09,54171,18.31,74772.5,-1.13,-27.71,-29.61,0,*5A
1506535334.32,54172,18.31,74778.0,-1.11,-27.51,-29.35,0,*58
1506535335.55,54173,18.31,74776.0,-1.11,-27.55,-29.39,0,*51
1506535336.78,54174,18.31,74776.3,-1.11,-27.51,-29.39,0,*52
1506535338.03,54175,18.31,74776.3,-1.11,-27.45,-29.13,0,*5E
1506535339.31,54176,18.31,74772.0,-1.13,-27.45,-29.29,0,*56
1506535340.54,54177,18.31,74776.3,-1.11,-27.51,-29.29,0,*50
1506535341.76,54178,18.31,74776.8,-1.11,-27.51,-29.29,0,*5F
1506535343.0,54179,18.31,74778.8,-1.13,-27.55,-29.45,0,*52
1506535344.2,54180,18.31,74776.3,-1.11,-27.51,-29.23,0,*52
1506535345.45,54181,18.31,74776.3,-1.11,-27.39,-29.29,0,*57
1506535346.73,54182,18.31,74776.5,-1.13,-27.45,-29.29,0,*5D
1506535348.02,54183,18.31,74778.0,-1.13,-27.45,-29.35,0,*51
1506535349.28,54184,18.31,74774.0,-1.13,-27.55,-29.35,0,*57
1506535350.5,54185,18.31,74776.5,-1.11,-27.51,-29.29,0,*5D
1506535351.76,54186,18.31,74778.0,-1.13,-27.45,-29.45,0,*53
1506535353.05,54187,18.31,74776.0,-1.13,-27.45,-29.35,0,*55
1506535354.28,54188,18.31,74778.8,-1.11,-27.39,-29.23,0,*54
1506535355.54,54189,18.31,74778.3,-1.13,-27.29,-29.17,0,*51
1506535356.82,54190,18.31,74776.5,-1.13,-27.39,-29.29,0,*55
1506535358.07,54191,18.31,74776.8,-1.11,-27.39,-29.29,0,*56
1506535359.28,54192,18.31,74774.8,-1.11,-27.51,-29.45,0,*51
1506535360.54,54193,18.31,74776.5,-1.13,-27.55,-29.35,0,*51
1506535361.8,54194,18.31,74778.3,-1.13,-27.29,-29.17,0,*5D
1506535363.02,54195,18.31,74776.0,-1.11,-27.35,-29.23,0,*54
1506535364.27,54196,18.31,74772.8,-1.11,-27.23,-29.13,0,*53
1506535365.5,54197,18.31,74776.0,-1.13,-27.55,-29.45,0,*52
1506535366.75,54198,18.31,74772.0,-1.11,-27.23,-29.13,0,*5D
1506535368.02,54199,18.31,74778.0,-1.13,-27.29,-29.35,0,*50
1506535369.28,54200,18.31,74772.0,-1.13,-27.39,-29.45,0,*55
1506535370.54,54201,18.31,74776.5,-1.13,-27.29,-29.17,0,*52
1506535371.82,54202,18.31,74776.5,-1.13,-27.39,-29.29,0,*5D
1506535373.11,54203,18.31,74776.8,-1.13,-27.39,-29.35,0,*51
1506535374.39,54204,18.31,74778.0,-1.13,-27.45,-29.35,0,*5D
1506535375.65,54205,18.31,74776.0,-1.11,-27.45,-29.39,0,*52
1506535376.94,54206,18.31,74776.8,-1.13,-27.45,-29.35,0,*5F
1506535378.2,54207,18.31,74778.0,-1.13,-27.29,-29.29,0,*59
1506535379.48,54208,18.31,74778.0,-1.13,-27.23,-29.17,0,*51
1506535380.74,54209,18.31,74774.0,-1.13,-27.45,-29.45,0,*57
1506535382.02,54210,18.31,74776.0,-1.13,-27.39,-29.39,0,*5F
1506535383.28,54211,18.31,74774.3,-1.13,-27.29,-29.17,0,*53
1506535384.54,54212,18.31,74776.0,-1.13,-27.29,-29.29,0,*5D
1506535385.81,54213,18.31,74776.5,-1.13,-27.23,-29.29,0,*56
1506535387.07,54214,18.31,74772.0,-1.13,-27.39,-29.45,0,*50
1506535388.32,54215,18.31,74774.0,-1.11,-27.39,-29.29,0,*59
1506535389.59,54216,18.31,74774.5,-1.13,-27.55,-29.51,0,*5D
1506535390.87,54217,18.31,74776.0,-1.13,-26.97,-29.13,0,*55
1506535392.16,54218,18.31,74778.3,-1.13,-26.81,-28.91,0,*56
1506535393.43,54219,18.31,74774.3,-1.13,-27.23,-29.29,0,*5C
1506535394.69,54220,18.31,74776.5,-1.11,-27.35,-29.39,0,*52
1506535395.93,54221,18.31,74778.0,-1.11,-27.35,-29.29,0,*52
1506535397.21,54222,18.31,74774.3,-1.13,-27.23,-29.17,0,*59
1506535398.49,54223,18.31,74778.5,-1.13,-27.23,-29.17,0,*58
1506535399.78,54224,18.31,74772.3,-1.13,-27.23,-29.35,0,*5F
1506535401.07,54225,18.31,74778.8,-1.13,-27.39,-29.51,0,*57
1506535402.32,54226,18.31,74774.5,-1.13,-27.23,-29.45,0,*5A
1506535403.61,54227,18.31,74776.3,-1.13,-27.39,-29.35,0,*57
1506535404.88,54228,18.31,74774.5,-1.15,-27.23,-29.35,0,*55
1506535406.13,54229,18.31,74778.5,-1.13,-27.13,-29.17,0,*51
1506535407.38,54230,18.31,74776.5,-1.13,-27.07,-29.29,0,*51
1506535408.64,54231,18.31,74776.3,-1.15,-27.23,-29.29,0,*50
1506535409.88,54232,18.31,74772.8,-1.13,-27.29,-29.45,0,*55
1506535411.11,54233,18.31,74778.0,-1.11,-27.35,-29.45,0,*5B
1506535412.37,54234,18.31,74776.3,-1.13,-27.39,-29.45,0,*52
1506535413.61,54235,18.31,74774.8,-1.13,-27.29,-29.45,0,*52
1506535414.84,54236,18.31,74774.5,-1.15,-27.07,-29.13,0,*58
1506535416.07,54237,18.31,74776.3,-1.15,-27.13,-29.17,0,*58
1506535417.34,54238,18.31,74778.3,-1.13,-27.29,-29.35,0,*58
1506535418.63,54239,18.31,74778.0,-1.13,-27.39,-29.35,0,*58
1506535419.87,54240,18.31,74778.0,-1.15,-27.29,-29.35,0,*51
1506535421.15,54241,18.31,74778.5,-1.13,-27.23,-29.35,0,*5C
1506535422.41,54242,18.31,74774.8,-1.17,-26.97,-29.17,0,*55
1506535423.64,54243,18.31,74772.8,-1.15,-27.13,-29.29,0,*56
1506535424.89,54244,18.31,74776.3,-1.13,-27.13,-29.17,0,*5A
1506535426.12,54245,18.31,74772.8,-1.15,-27.13,-29.29,0,*50
1506535427.38,54246,18.31,74778.8,-1.15,-26.93,-29.17,0,*57
1506535428.64,54247,18.31,74778.3,-1.15,-26.97,-29.01,0,*55
1506535429.91,54248,18.31,74776.5,-1.15,-26.81,-29.01,0,*5D
1506535431.17,54249,18.31,74776.5,-1.15,-26.97,-29.17,0,*5C
1506535432.43,54250,18.31,74776.8,-1.13,-27.07,-29.29,0,*57
1506535433.69,54251,18.31,74778.3,-1.13,-27.07,-29.17,0,*5B
1506535434.94,54252,18.31,74778.3,-1.13,-27.07,-29.17,0,*58
1506535436.17,54253,18.31,74776.0,-1.17,-26.93,-29.23,0,*56
1506535437.43,54254,18.31,74776.0,-1.15,-26.97,-29.29,0,*5D
1506535438.66,54255,18.31,74776.0,-1.15,-27.13,-29.35,0,*5C
1506535439.9,54256,18.31,74772.8,-1.15,-27.13,-29.35,0,*5F
1506535441.16,54257,18.31,74776.0,-1.15,-26.81,-29.13,0,*50
1506535442.42,54258,18.31,74776.8,-1.13,-26.81,-29.07,0,*5C
1506535443.7,54259,18.31,74776.3,-1.13,-27.23,-29.51,0,*57
1506535444.99,54260,18.31,74774.8,-1.13,-26.97,-29.17,0,*51
1506535446.25,54261,18.31,74778.3,-1.15,-26.97,-29.29,0,*5B
1506535447.48,54262,18.31,74776.0,-1.17,-26.97,-29.23,0,*50
1506535448.74,54263,18.31,74778.3,-1.15,-26.97,-29.17,0,*54
1506535449.99,54264,18.31,74778.3,-1.13,-27.07,-29.29,0,*50
1506535451.2,54265,18.31,74778.0,-1.15,-27.13,-29.45,0,*58
1506535452.46,54266,18.31,74776.8,-1.13,-27.07,-29.29,0,*52
1506535453.73,54267,18.31,74778.8,-1.13,-27.07,-29.35,0,*5E
1506535455.01,54268,18.31,74778.3,-1.13,-26.93,-29.17,0,*5D
1506535456.3,54269,18.31,74776.3,-1.13,-26.97,-29.17,0,*58
1506535457.58,54270,18.31,74776.8,-1.13,-26.81,-29.13,0,*53
1506535458.86,54271,18.31,74776.3,-1.13,-26.93,-29.17,0,*55
1506535460.12,54272,18.31,74778.3,-1.15,-26.97,-29.29,0,*59
1506535461.39,54273,18.31,74774.8,-1.15,-26.97,-29.35,0,*55
1506535462.66,54274,18.31,74776.0,-1.13,-27.07,-29.35,0,*5C
1506535463.92,54275,18.31,74776.5,-1.15,-26.77,-29.17,0,*5D
1506535465.18,54276,18.31,74776.0,-1.15,-26.97,-29.29,0,*5D
1506535466.46,54277,18.31,74778.0,-1.13,-26.93,-29.17,0,*53
1506535467.68,54278,18.31,74774.3,-1.15,-27.07,-29.45,0,*51
1506535468.9,54279,18.31,74778.5,-1.11,-27.03,-29.29,0,*5A
1506535470.18,54280,18.31,74776.0,-1.13,-26.93,-29.29,0,*56
1506535471.41,54281,18.31,74778.5,-1.17,-27.03,-29.35,0,*56
1506535472.68,54282,18.31,74776.8,-1.13,-26.97,-29.45,0,*5A
1506535473.94,54283,18.31,74776.0,-1.15,-26.81,-29.17,0,*5D
1506535475.22,54284,18.31,74778.8,-1.13,-26.93,-29.17,0,*5F
1506535476.48,54285,18.31,74776.8,-1.15,-26.93,-29.29,0,*55
1506535477.74,54286,18.31,74778.8,-1.15,-26.77,-29.13,0,*55
1506535479.03,54287,18.31,74774.8,-1.13,-26.97,-29.35,0,*58
1506535480.32,54288,18.31,74778.3,-1.13,-26.97,-29.35,0,*57
1506535481.6,54289,18.31,74776.5,-1.13,-26.93,-29.29,0,*5F
1506535482.84,54290,18.31,74774.0,-1.13,-27.07,-29.45,0,*51
1506535484.11,54291,18.31,74776.3,-1.15,-26.97,-29.35,0,*59
1506535485.36,54292,18.31,74774.5,-1.17,-26.97,-29.39,0,*54
1506535486.64,54293,18.31,74778.3,-1.13,-26.81,-29.29,0,*57
1506535487.93,54294,18.31,74776.0,-1.13,-26.77,-29.17,0,*54
1506535489.19,54295,18.31,74774.3,-1.15,-26.81,-29.17,0,*5A
1506535490.42,54296,18.31,74774.8,-1.15,-26.61,-29.13,0,*53
1506535491.69,54297,18.31,74776.3,-1.15,-26.77,-29.35,0,*51
1506535492.93,54298,18.31,74772.0,-1.15,-26.81,-29.45,0,*50
1506535494.2,54299,18.31,74776.3,-1.13,-26.97,-29.45,0,*50
1506535495.49,54300,18.31,74778.8,-1.13,-26.93,-29.35,0,*52
1506535496.78,54301,18.31,74778.3,-1.13,-26.81,-29.35,0,*50
1506535498.05,54302,18.31,74776.8,-1.15,-26.93,-29.35,0,*56
1506535499.33,54303,18.31,74776.5,-1.13,-26.81,-29.29,0,*5F
1506535500.62,54304,18.31,74776.3,-1.13,-26.97,-29.51,0,*50
1506535501.9,54305,18.31,74778.0,-1.13,-26.71,-29.29,0,*56
1506535503.13,54306,18.31,74774.5,-1.11,-26.81,-29.23,0,*52
1506535504.38,54307,18.31,74774.8,-1.15,-26.71,-29.29,0,*52
1506535505.65,54308,18.31,74776.3,-1.15,-26.93,-29.35,0,*5C
1506535506.92,54309,18.31,74774.8,-1.15,-26.97,-29.35,0,*59
1506535508.18,54310,18.31,74778.0,-1.15,-26.77,-29.17,0,*5F
1506535509.44,54311,18.31,74778.5,-1.15,-26.77,-29.29,0,*53
1506535510.7,54312,18.31,74778.5,-1.15,-26.77,-29.29,0,*50
1506535511.99,54313,18.31,74774.5,-1.13,-26.97,-29.51,0,*56
1506535513.25,54314,18.31,74778.8,-1.15,-26.93,-29.17,0,*51
1506535514.51,54315,18.31,74778.3,-1.17,-26.77,-29.35,0,*58
1506535515.74,54316,18.31,74776.8,-1.15,-26.61,-29.17,0,*5E
1506535516.97,54317,18.31,74776.8,-1.15,-26.61,-29.13,0,*5B
1506535518.24,54318,18.31,74776.0,-1.13,-26.71,-29.29,0,*5A
1506535519.5,54319,18.31,74774.3,-1.15,-26.77,-29.29,0,*5B
1506535520.78,54320,18.31,74772.5,-1.13,-26.71,-29.17,0,*5C
1506535522.04,54321,18.31,74776.5,-1.13,-26.61,-29.17,0,*5C
1506535523.31,54322,18.31,74772.8,-1.15,-26.77,-29.35,0,*5E
1506535524.55,54323,18.31,74778.5,-1.15,-26.81,-29.45,0,*51
1506535525.81,54324,18.31,74774.8,-1.13,-26.97,-29.61,0,*51
1506535527.07,54325,18.31,74774.3,-1.13,-26.93,-29.61,0,*54
1506535528.34,54326,18.31,74772.5,-1.15,-26.93,-29.35,0,*50
1506535529.54,54327,18.31,74778.0,-1.17,-26.65,-29.23,0,*5D
1506535530.77,54328,18.31,74776.8,-1.15,-26.61,-29.17,0,*53
1506535531.97,54329,18.31,74776.0,-1.17,-26.65,-29.23,0,*53
1506535533.17,54330,18.31,74776.3,-1.17,-26.65,-29.23,0,*5B
1506535534.45,54331,18.31,74774.5,-1.13,-26.55,-29.13,0,*5E
1506535535.7,54332,18.31,74776.0,-1.15,-26.71,-29.17,0,*59
1506535536.96,54333,18.31,74778.8,-1.15,-26.55,-29.01,0,*59
1506535538.24,54334,18.31,74776.5,-1.13,-26.81,-29.29,0,*5B
1506535539.47,54335,18.31,74778.3,-1.15,-26.71,-29.45,0,*59
1506535540.73,54336,18.31,74778.3,-1.15,-26.71,-29.17,0,*5D
1506535541.98,54337,18.31,74774.5,-1.13,-26.61,-29.29,0,*56
1506535543.23,54338,18.31,74776.8,-1.13,-26.61,-29.29,0,*59
1506535544.49,54339,18.31,74776.8,-1.13,-26.61,-29.17,0,*55
1506535545.75,54340,18.31,74778.5,-1.13,-26.77,-29.45,0,*5B
1506535547.02,54341,18.31,74776.5,-1.15,-26.77,-29.35,0,*5B
1506535548.26,54342,18.31,74774.8,-1.15,-26.77,-29.45,0,*5F
1506535549.49,54343,18.31,74774.5,-1.17,-26.65,-29.39,0,*54
1506535550.75,54344,18.31,74778.0,-1.15,-26.71,-29.35,0,*58
1506535552.01,54345,18.31,74776.3,-1.15,-26.71,-29.17,0,*59
1506535553.26,54346,18.31,74776.3,-1.13,-26.61,-29.29,0,*50
1506535554.5,54347,18.31,74778.0,-1.15,-26.77,-29.45,0,*5A
1506535555.74,54348,18.31,74778.0,-1.15,-26.61,-29.35,0,*55
1506535556.97,54349,18.31,74776.5,-1.15,-26.61,-29.29,0,*59
1506535558.23,54350,18.31,74776.0,-1.13,-26.61,-29.35,0,*5A
1506535559.47,54351,18.31,74776.3,-1.15,-26.71,-29.45,0,*5B
1506535560.7,54352,18.31,74776.3,-1.15,-26.39,-29.01,0,*54
1506535561.95,54353,18.31,74778.5,-1.15,-26.55,-29.13,0,*5C
1506535563.22,54354,18.31,74778.5,-1.15,-26.71,-29.35,0,*59
1506535564.46,54355,18.31,74778.5,-1.15,-26.61,-29.35,0,*59
1506535565.73,54356,18.31,74776.0,-1.13,-26.55,-29.17,0,*5B
1506535566.99,54357,18.31,74778.0,-1.13,-26.45,-29.01,0,*5C
1506535568.2,54358,18.31,74776.3,-1.11,-26.49,-29.23,0,*5D
1506535569.43,54359,18.31,74780.0,-1.11,-26.65,-29.39,0,*59
1506535570.69,54360,18.31,74778.5,-1.13,-26.71,-29.45,0,*5F
1506535571.92,54361,18.31,74778.3,-1.15,-26.71,-29.45,0,*58
1506535573.19,54362,18.31,74778.0,-1.15,-26.55,-29.35,0,*5A
1506535574.41,54363,18.31,74776.3,-1.15,-26.61,-29.29,0,*51
1506535575.69,54364,18.31,74778.8,-1.13,-26.71,-29.17,0,*5C
1506535576.94,54365,18.31,74778.5,-1.15,-26.55,-29.29,0,*50
1506535578.18,54366,18.31,74778.5,-1.15,-26.55,-29.45,0,*59
1506535579.43,54367,18.31,74778.3,-1.17,-26.77,-29.39,0,*51
1506535580.66,54368,18.31,74776.8,-1.15,-26.45,-29.17,0,*51
1506535581.91,54369,18.31,74776.3,-1.15,-26.55,-29.29,0,*5C
1506535583.15,54370,18.31,74778.5,-1.17,-26.65,-29.51,0,*5A
1506535584.36,54371,18.31,74776.0,-1.15,-26.61,-29.45,0,*58
1506535585.57,54372,18.31,74778.3,-1.15,-26.61,-29.45,0,*5B
1506535586.8,54373,18.31,74776.0,-1.17,-26.65,-29.39,0,*57
1506535588.03,54374,18.31,74776.5,-1.15,-26.45,-29.17,0,*5C
1506535589.26,54375,18.31,74776.3,-1.15,-26.45,-29.29,0,*50
1506535590.52,54376,18.31,74780.0,-1.15,-26.55,-29.35,0,*5F
1506535591.75,54377,18.31,74778.8,-1.15,-26.45,-29.13,0,*5B
1506535593.0,54378,18.31,74774.3,-1.15,-26.55,-29.17,0,*51
1506535594.28,54379,18.31,74782.0,-1.13,-26.55,-29.29,0,*5B
1506535595.51,54380,18.31,74776.3,-1.15,-26.39,-29.13,0,*58
1506535596.76,54381,18.31,74774.0,-1.17,-26.29,-29.17,0,*5E
1506535597.98,54382,18.31,74774.3,-1.15,-26.45,-29.29,0,*58
1506535599.23,54383,18.31,74776.5,-1.11,-26.55,-29.29,0,*5C
1506535600.48,54384,18.31,74778.0,-1.11,-26.55,-29.29,0,*5B
1506535601.69,54385,18.31,74776.3,-1.15,-26.61,-29.45,0,*53
1506535602.93,54386,18.31,74778.3,-1.15,-26.61,-29.35,0,*57
1506535604.16,54387,18.31,74778.3,-1.15,-26.61,-29.29,0,*5B
1506535605.41,54388,18.31,74778.5,-1.13,-26.45,-29.29,0,*54
1506535606.67,54389,18.31,74776.5,-1.13,-26.61,-29.35,0,*5E
1506535607.91,54390,18.31,74780.8,-1.15,-26.45,-29.35,0,*56
1506535609.17,54391,18.31,74774.8,-1.15,-26.55,-29.35,0,*56
1506535610.4,54392,18.31,74774.3,-1.17,-26.61,-29.51,0,*52
1506535611.65,54393,18.31,74776.0,-1.13,-26.45,-29.29,0,*5E
1506535612.93,54394,18.31,74776.8,-1.13,-26.55,-29.17,0,*55
1506535614.22,54395,18.31,74776.3,-1.13,-26.55,-29.35,0,*54
1506535615.45,54396,18.31,74778.8,-1.15,-26.55,-29.45,0,*56
1506535616.69,54397,18.31,74778.8,-1.15,-26.45,-29.35,0,*51
1506535617.94,54398,18.31,74774.3,-1.13,-26.39,-29.29,0,*5E
1506535619.2,54399,18.31,74772.0,-1.13,-26.39,-29.17,0,*52
1506535620.45,54400,18.31,74772.3,-1.13,-26.39,-29.29,0,*58
1506535621.71,54401,18.31,74772.3,-1.13,-26.39,-29.17,0,*54
1506535622.98,54402,18.31,74780.8,-1.13,-26.55,-29.29,0,*50
1506535624.25,54403,18.31,74776.5,-1.13,-26.39,-29.35,0,*56
1506535625.51,54404,18.31,74778.8,-1.13,-26.45,-29.35,0,*5A
1506535626.74,54405,18.31,74778.3,-1.11,-26.39,-29.39,0,*5E
1506535627.97,54406,18.31,74778.0,-1.15,-26.23,-29.01,0,*59
1506535629.24,54407,18.31,74776.3,-1.13,-26.29,-29.13,0,*57
1506535630.5,54408,18.31,74776.5,-1.13,-25.91,-29.01,0,*5B
1506535631.78,54409,18.31,74776.3,-1.13,-26.29,-29.13,0,*59
1506535633.04,54410,18.31,74776.5,-1.13,-26.45,-29.35,0,*5F
1506535634.3,54411,18.31,74778.8,-1.11,-26.33,-29.29,0,*50
1506535635.56,54412,18.31,74778.0,-1.13,-26.39,-29.35,0,*56
1506535636.82,54413,18.31,74778.5,-1.13,-26.39,-29.35,0,*57
1506535638.07,54414,18.31,74778.8,-1.13,-26.45,-29.29,0,*56
1506535639.34,54415,18.31,74774.8,-1.13,-26.29,-29.45,0,*57
1506535640.59,54416,18.31,74776.0,-1.15,-26.29,-29.29,0,*58
1506535641.85,54417,18.31,74780.0,-1.13,-26.45,-29.35,0,*58
1506535643.11,54418,18.31,74778.8,-1.11,-26.33,-29.29,0,*59
1506535644.37,54419,18.31,74774.5,-1.13,-26.45,-29.35,0,*56
1506535645.6,54420,18.31,74778.0,-1.11,-26.07,-29.13,0,*5C
1506535646.85,54421,18.31,74778.8,-1.13,-26.07,-29.13,0,*5F
1506535648.08,54422,18.31,74776.8,-1.11,-26.07,-29.13,0,*5E
1506535649.27,54423,18.31,74776.0,-1.11,-26.23,-29.23,0,*5A
1506535650.51,54424,18.31,74776.3,-1.07,-26.33,-29.23,0,*5B
1506535651.77,54425,18.31,74776.3,-1.11,-26.33,-29.39,0,*56
1506535652.99,54426,18.31,74776.3,-1.11,-26.23,-29.29,0,*55
1506535654.2,54427,18.31,74778.3,-1.11,-26.03,-29.07,0,*5A
1506535655.4,54428,18.31,74778.3,-1.11,-26.07,-29.07,0,*51
1506535656.6,54429,18.31,74774.3,-1.11,-25.91,-29.07,0,*5C
1506535657.86,54430,18.31,74778.8,-1.11,-26.33,-29.29,0,*53
1506535659.11,54431,18.25,74774.3,-1.11,-26.17,-29.29,0,*54
1506535660.37,54432,18.31,74776.5,-1.11,-26.33,-29.29,0,*51
1506535661.62,54433,18.31,74778.5,-1.11,-26.17,-29.13,0,*5F
1506535662.84,54434,18.31,74776.8,-1.11,-26.23,-29.29,0,*56
1506535664.04,54435,18.31,74776.5,-1.11,-26.23,-29.23,0,*5D
1506535665.25,54436,18.31,74776.5,-1.07,-26.03,-29.07,0,*5D
1506535666.47,54437,18.31,74776.0,-1.07,-26.23,-29.29,0,*52
1506535667.71,54438,18.31,74778.3,-1.07,-25.87,-28.91,0,*52
1506535668.97,54439,18.31,74774.5,-1.07,-25.71,-28.75,0,*50
1506535670.18,54440,18.31,74774.5,-1.07,-25.87,-28.97,0,*5B
1506535671.46,54441,18.31,74776.5,-1.05,-25.81,-28.91,0,*58
1506535672.69,54442,18.31,74778.8,-1.07,-25.75,-28.97,0,*54
1506535673.97,54443,18.31,74774.8,-1.05,-26.13,-29.17,0,*5D
1506535675.19,54444,18.31,74774.5,-1.05,-25.87,-29.07,0,*55
1506535676.47,54445,18.31,74776.8,-1.05,-25.81,-29.01,0,*54
1506535677.73,54446,18.31,74776.0,-1.05,-25.97,-29.07,0,*56
1506535678.95,54447,18.31,74776.0,-1.03,-26.13,-29.23,0,*58
1506535680.18,54448,18.31,74780.0,-1.03,-26.17,-29.23,0,*53
1506535681.44,54449,18.31,74778.8,-1.03,-26.29,-29.35,0,*58
1506535682.71,54450,18.31,74774.8,-1.03,-26.17,-29.35,0,*5D
1506535683.99,54451,18.31,74776.0,-1.05,-25.97,-29.17,0,*51
1506535685.27,54452,18.31,74776.0,-1.05,-25.71,-28.91,0,*55
1506535686.55,54453,18.31,74778.8,-1.05,-25.81,-29.01,0,*53
1506535687.83,54454,18.31,74776.8,-1.05,-26.13,-29.17,0,*5B
1506535689.09,54455,18.31,74776.0,-0.99,-26.13,-29.35,0,*6E
1506535690.34,54456,18.31,74776.0,-1.03,-26.29,-29.39,0,*5A
1506535691.6,54457,18.25,74772.8,-1.03,-26.29,-29.51,0,*55
1506535692.8,54458,18.31,74776.8,-1.03,-25.87,-29.07,0,*5E
1506535694.06,54459,18.31,74778.3,-1.03,-25.81,-29.01,0,*5F
1506535695.29,54460,18.25,74776.5,-1.03,-26.17,-29.23,0,*59
1506535696.51,54461,18.31,74776.3,-1.03,-26.13,-29.23,0,*5C
1506535697.78,54462,18.31,74778.0,-1.03,-26.17,-29.35,0,*5C
1506535699.04,54463,18.31,74776.0,-1.03,-26.17,-29.35,0,*5D